Flight Track Log - Related Links

Times and Time Zones

All times are in EDT time to prevent confusion due to time zone crossing. See the C-GGHZ flight status page for this flight to view local times or setup timezone preferences in your user account.

Time Position Orientation Groundspeed Altitude Reporting Facility
EDT Latitude Longitude Course Direction KTS MPH feet Rate Location/Type
Wed 01:12:35 PM 37.2889 -93.2667 38° Northeast 311 358 8,200  Level Kansas City Center
Wed 01:13:37 PM 37.3731 -93.2325 18° North 313 360 11,300 2,806 Climbing Kansas City Center
Wed 01:14:39 PM 37.4583 -93.1961 19° North 319 367 14,000 2,516 Climbing Kansas City Center
Wed 01:15:41 PM 37.5644 -93.1433 22° Northeast 335 386 16,500 1,935 Climbing Kansas City Center
Wed 01:16:43 PM 37.6450 -93.0656 37° Northeast 357 411 18,000 1,452 Climbing Kansas City Center
Wed 01:17:00 PM 37.7043 -92.8747 38° Northeast  Level Estimated
Wed 01:17:45 PM 37.7286 -92.9875 36° Northeast 367 422 19,500  Level Kansas City Center
Wed 01:18:47 PM 37.8156 -92.9069 36° Northeast 379 436 20,800 1,306 Climbing Kansas City Center
Wed 01:19:49 PM 37.9050 -92.8242 36° Northeast 392 451 22,200 1,355 Climbing Kansas City Center
Wed 01:20:51 PM 38.0067 -92.7286 37° Northeast 407 468 23,600 1,306 Climbing Kansas City Center
Wed 01:21:53 PM 38.0994 -92.6425 36° Northeast 412 474 24,900 1,258 Climbing Kansas City Center
Wed 01:22:55 PM 38.1936 -92.5542 36° Northeast 419 482 26,200 1,258 Climbing Kansas City Center
Wed 01:23:57 PM 38.2844 -92.4678 37° Northeast 423 487 27,500 1,403 Climbing Kansas City Center
Wed 01:24:59 PM 38.4028 -92.3536 37° Northeast 436 502 29,100 1,344 Climbing Kansas City Center
Wed 01:26:02 PM 38.5058 -92.2561 37° Northeast 450 518 30,300 1,056 Climbing Kansas City Center
Wed 01:27:04 PM 38.6125 -92.1528 37° Northeast 468 539 31,300 968 Climbing Kansas City Center
Wed 01:28:06 PM 38.7219 -92.0486 37° Northeast 483 556 32,300 968 Climbing Kansas City Center
Wed 01:29:08 PM 38.8319 -91.9414 37° Northeast 491 565 33,300 968 Climbing Kansas City Center
Wed 01:30:10 PM 38.9425 -91.8358 37° Northeast 492 566 34,300 1,016 Climbing Kansas City Center
Wed 01:31:12 PM 39.0519 -91.7306 37° Northeast 490 564 35,400 1,016 Climbing Kansas City Center
Wed 01:32:14 PM 39.1622 -91.6217 37° Northeast 492 566 36,400 774 Climbing Kansas City Center
Wed 01:33:16 PM 39.2942 -91.4925 37° Northeast 494 568 37,000 48 Climbing Kansas City Center
Wed 01:34:18 PM 39.4078 -91.3803 37° Northeast 502 578 36,500 -726 Descending Kansas City Center
Wed 01:35:20 PM 39.5244 -91.2656 37° Northeast 515 593 35,500 -823 Descending Kansas City Center
Wed 01:36:22 PM 39.6400 -91.1506 37° Northeast 520 598 34,800 -532 Descending Kansas City Center
Wed 01:37:24 PM 39.7511 -91.0386 38° Northeast 514 592 34,400 -1,113 Descending Kansas City Center
Wed 01:38:26 PM 39.8669 -90.9228 37° Northeast 507 583 32,500 -1,597 Descending Kansas City Center
Wed 01:39:28 PM 39.9828 -90.8081 37° Northeast 517 595 31,100 -726 Descending Kansas City Center
Wed 01:40:30 PM 40.0950 -90.6897 39° Northeast 519 597 31,000 -48 Descending Kansas City Center
Wed 01:41:32 PM 40.2331 -90.5531 37° Northeast 518 596 31,000  Level Kansas City Center
Wed 01:42:34 PM 40.3436 -90.4375 39° Northeast 511 588 31,000 -1,071 Level Kansas City Center
Wed 01:43:24 PM 40.4308 -90.3494 38° Northeast 501 577 29,000 -2,571 Descending Chicago Center
Wed 01:44:26 PM 40.5425 -90.2344 38° Northeast 477 549 26,200 -2,371 Descending Chicago Center
Wed 01:45:28 PM 40.6186 -90.1056 52° Northeast 461 531 24,100 -2,226 Descending Chicago Center
Wed 01:46:30 PM 40.6922 -89.9775 53° Northeast 441 507 21,600 -2,274 Descending Chicago Center
Wed 01:47:32 PM 40.7572 -89.8500 56° Northeast 417 480 19,400 -1,887 Descending Chicago Center
Wed 01:48:34 PM 40.8186 -89.7344 55° Northeast 388 447 17,700 -1,839 Descending Chicago Center
Wed 01:49:36 PM 40.8869 -89.6053 55° Northeast 356 410 15,600 -1,920 Descending Chicago Center
Wed 01:50:39 PM 40.9431 -89.4992 55° Northeast 343 395 13,700 -1,632 Descending Chicago Center
Wed 01:51:41 PM 40.9975 -89.3950 55° Northeast 343 395 12,200 -1,210 Descending Chicago Center
Wed 01:52:43 PM 41.0511 -89.2944 55° Northeast 336 387 11,200 -1,016 Descending Chicago Center
Wed 01:53:45 PM 41.1025 -89.1942 56° Northeast 331 381 10,100 -1,065 Descending Chicago Center
Wed 01:54:47 PM 41.1614 -89.0819 55° Northeast 324 373 9,000 -1,016 Descending Chicago Center
Wed 01:55:49 PM 41.2100 -88.9850 56° Northeast 317 365 8,000 -968 Descending Chicago Center
Wed 01:56:51 PM 41.2572 -88.8919 56° Northeast 308 354 7,000 -1,065 Descending Chicago Center
Wed 01:57:53 PM 41.3061 -88.7956 56° Northeast 312 359 5,800 -968 Descending Chicago Center
Wed 01:58:55 PM 41.3508 -88.7086 56° Northeast 292 336 5,000 -387 Descending Chicago Center
Wed 01:59:57 PM 41.3933 -88.6236 56° Northeast 280 322 5,000  Level Chicago Center
Wed 02:01:00 PM 41.4442 -88.5233 56° Northeast 274 315 5,000  Level Chicago Center
Wed 02:02:02 PM 41.4836 -88.4444 56° Northeast 261 300 5,000 -532 Level Chicago Center
Wed 02:03:04 PM 41.4861 -88.3622 88° East 236 272 3,900 -968 Descending Chicago Center
Wed 02:04:06 PM 41.4794 -88.2867 97° East 217 250 3,000 -435 Descending Chicago Center
Wed 02:05:08 PM 41.4756 -88.2214 95° East 199 229 3,000 -242 Level Chicago Center
Wed 02:06:10 PM 41.4683 -88.1606 99° East 194 223 2,500 -339 Descending Chicago Center
Wed 02:07:12 PM 41.5225 -88.1283 24° Northeast 182 209 2,300 -532 Descending Chicago Center
Wed 02:08:14 PM 41.5656 -88.1122 16° North 168 193 1,400 -484 Descending Chicago Center
Wed 02:09:16 PM 41.6044 -88.0994 14° North 156 180 1,300 774 Descending Chicago Center
Wed 02:10:18 PM 41.6286 -88.1383 310° West 163 188 3,000 823 Climbing Chicago Center
Wed 02:11:20 PM 41.6531 -88.2114 294° West 195 224 3,000 387 Level Chicago Center
Wed 02:12:22 PM 41.6639 -88.2864 281° West 210 242 3,800 484 Climbing Chicago Center
Wed 02:13:24 PM 41.5986 -88.2703 170° South 242 278 4,000 97 Climbing Chicago Center
Wed 02:14:26 PM 41.5853 -88.1844 102° East 239 275 4,000  Level Chicago Center
Wed 02:15:28 PM 41.5964 -88.1011 80° East 240 276 4,000  Level Chicago Center
Wed 02:16:30 PM 41.6239 -88.0219 65° Northeast 237 273 4,000 -435 Level Chicago Center
Wed 02:17:32 PM 41.6381 -87.9386 77° East 232 267 3,100 -484 Descending Chicago Center
Wed 02:18:34 PM 41.6789 -87.8906 41° Northeast 209 241 3,000 -435 Descending Chicago Center
Wed 02:19:36 PM 41.7236 -87.8292 46° Northeast 198 228 2,200 -774 Descending Chicago Center
Wed 02:20:38 PM 41.7550 -87.7908 42° Northeast 175 201 1,400 -532 Descending Chicago Center
Wed 02:21:40 PM 41.7814 -87.7592 42° Northeast 164 189 1,100 -290 Descending Chicago Center

Login

Don't have an account? Register now (free) for customized features, flight alerts, and more!